Papa, Hungary

7:35 PM CEST on July 29, 2016 (GMT +0200)
Papa

Weather History for LHPA - November, 2013

Change the Weather History Date:

Saturday, November 30, 2013

  Actual Average Record
Temperature  
Mean Temperature 33 °F -  
Max Temperature 42 °F - - ()
Min Temperature 24 °F - - ()
Degree Days  
Heating Degree Days 32    
Moisture  
Dew Point 29 °F    
Average Humidity 79    
Maximum Humidity 100    
Minimum Humidity 65    
Precipitation  
Precipitation 0.00 in - - ()
Sea Level Pressure  
Sea Level Pressure 30.10 in    
Wind  
Wind Speed 5 mph ()    
Max Wind Speed 11 mph    
Max Gust Speed -    
Visibility 6.2 miles    
Events      
T = Trace of Precipitation, MM = Missing Value Source: Averaged Metar Reports

Daily Weather History Graph

Daily Weather History Graph

Search for Another Location

Airport or City:

Trip Planner

Search our weather history database for the weather conditions in past years. The results will help you decide how hot, cold, wet, or windy it might be!

Date:

Astronomy

Nov. 30, 2013 Rise Set
Actual Time 7:15 AM CET 4:02 PM CET
Civil Twilight 6:40 AM CET 4:36 PM CET
Nautical Twilight 6:01 AM CET 5:15 PM CET
Astronomical Twilight 5:24 AM CET 5:52 PM CET
Moon 3:55 AM CET (11/30) 2:22 PM CET (11/30)
Length of Visible Light 9h 56m
Length of Day
8h 47m
Waning Crescent, 9% of the Moon is Illuminated
Nov 30
Waning Crescent
Dec 3
New
Dec 9
First Quarter
Dec 17
Full
Dec 25
Last Quarter

Hourly Weather History & Observations

Time (CET) Temp. Windchill Dew Point Humidity Pressure Visibility Wind Dir Wind Speed Gust Speed Precip Events Conditions
12:15 AM 37.4 °F 30.9 °F 30.2 °F 75% 30.04 in - South 8.9 mph - N/A   Clear
12:45 AM 37.4 °F 29.9 °F 30.2 °F 75% 30.01 in - South 11.2 mph - N/A   Clear
1:15 AM 37.4 °F 30.9 °F 30.2 °F 75% 30.01 in - South 8.9 mph - N/A   Clear
1:45 AM 37.4 °F 29.9 °F 28.4 °F 70% 30.01 in - South 11.2 mph - N/A   Clear
2:15 AM 37.4 °F 30.9 °F 28.4 °F 70% 29.98 in - South 8.9 mph - N/A   Clear
2:45 AM 35.6 °F 28.7 °F 28.4 °F 75% 29.98 in - South 8.9 mph - N/A   Clear
3:15 AM 37.4 °F 29.9 °F 28.4 °F 70% 29.98 in - South 11.2 mph - N/A   Clear
3:45 AM 37.4 °F 30.9 °F 28.4 °F 70% 29.98 in - South 8.9 mph - N/A   Clear
4:15 AM 37.4 °F 30.9 °F 28.4 °F 70% 29.98 in - South 8.9 mph - N/A   Clear
4:45 AM 37.4 °F 33.9 °F 28.4 °F 70% 29.98 in 6.2 mi SSW 4.5 mph - N/A   Overcast
5:15 AM 37.4 °F 33.9 °F 28.4 °F 70% 29.98 in 6.2 mi South 4.5 mph - N/A   Overcast
5:45 AM 37.4 °F 33.9 °F 30.2 °F 75% 29.98 in 6.2 mi South 4.5 mph - N/A   Overcast
6:15 AM 35.6 °F 28.7 °F 28.4 °F 75% 29.98 in 6.2 mi South 8.9 mph - N/A   Overcast
6:45 AM 35.6 °F - 28.4 °F 75% 29.98 in 6.2 mi SSW 2.2 mph - N/A   Mostly Cloudy
7:15 AM 35.6 °F 31.8 °F 28.4 °F 75% 30.01 in - SSW 4.5 mph - N/A   Clear
7:45 AM 35.6 °F 30.0 °F 28.4 °F 75% 30.01 in - South 6.7 mph - N/A   Clear
8:15 AM 35.6 °F 31.8 °F 30.2 °F 81% 30.01 in - South 4.5 mph - N/A   Clear
8:45 AM 37.4 °F 33.9 °F 30.2 °F 75% 30.01 in - SW 4.5 mph - N/A   Clear
9:15 AM 37.4 °F 33.9 °F 30.2 °F 75% 30.04 in - SW 4.5 mph - N/A   Clear
9:45 AM 37.4 °F 33.9 °F 30.2 °F 75% 30.04 in - WSW 4.5 mph - N/A   Clear
10:15 AM 39.2 °F 36.0 °F 32.0 °F 75% 30.06 in - SW 4.5 mph - N/A   Clear
10:45 AM 39.2 °F - 32.0 °F 75% 30.06 in - SW 2.2 mph - N/A   Clear
11:15 AM 39.2 °F 36.0 °F 32.0 °F 75% 30.06 in - WNW 4.5 mph - N/A   Clear
11:45 AM 41.0 °F - 30.2 °F 65% 30.06 in - NNW 2.2 mph - N/A   Clear
12:15 PM 41.0 °F - 30.2 °F 65% 30.06 in - NW 2.2 mph - N/A   Clear
12:45 PM 41.0 °F - 32.0 °F 70% 30.09 in - NNE 2.2 mph - N/A   Clear
1:15 PM 41.0 °F - 32.0 °F 70% 30.09 in - Calm Calm - N/A   Clear
1:45 PM 42.8 °F - 33.8 °F 70% 30.09 in - NNW 2.2 mph - N/A   Clear
2:15 PM 42.8 °F - 33.8 °F 70% 30.09 in - North 2.2 mph - N/A   Clear
2:45 PM 42.8 °F 40.2 °F 33.8 °F 70% 30.09 in - NNE 4.5 mph - N/A   Clear
3:15 PM 41.0 °F - 33.8 °F 76% 30.12 in - North 2.2 mph - N/A   Clear
3:45 PM 41.0 °F - 33.8 °F 76% 30.12 in - North 2.2 mph - N/A   Clear
4:15 PM 37.4 °F - 32.0 °F 81% 30.15 in - NNW 2.2 mph - N/A   Clear
4:45 PM 35.6 °F - 32.0 °F 87% 30.15 in - NNW 2.2 mph - N/A   Clear
5:15 PM 33.8 °F 29.7 °F 32.0 °F 93% 30.18 in - NNW 4.5 mph - N/A   Clear
5:45 PM 30.2 °F - 28.4 °F 93% 30.18 in - Calm Calm - N/A   Clear
6:15 PM 30.2 °F - 28.4 °F 93% 30.18 in - Calm Calm - N/A   Clear
6:45 PM 28.4 °F 23.4 °F 26.6 °F 93% 30.18 in - NNW 4.5 mph - N/A   Clear
7:15 PM 32.0 °F 27.6 °F 28.4 °F 87% 30.21 in - NNW 4.5 mph - N/A   Clear
7:45 PM 30.2 °F - 30.2 °F 100% 30.21 in - Calm Calm - N/A   Clear
8:15 PM 28.4 °F - 26.6 °F 93% 30.24 in - Calm Calm - N/A   Clear
8:45 PM 28.4 °F - 26.6 °F 93% 30.24 in - NE 2.2 mph - N/A   Clear
9:15 PM 26.6 °F - 24.8 °F 93% 30.27 in - East 2.2 mph - N/A   Clear
9:45 PM 28.4 °F 23.4 °F 26.6 °F 93% 30.27 in - SSE 4.5 mph - N/A   Clear
10:15 PM 26.6 °F 21.3 °F 24.8 °F 93% 30.27 in - SSE 4.5 mph - N/A   Clear
10:45 PM 24.8 °F - 24.8 °F 100% 30.27 in - SSE 2.2 mph - N/A   Clear
11:15 PM 26.6 °F 21.3 °F 24.8 °F 93% 30.30 in - SSE 4.5 mph - N/A   Clear
11:45 PM 26.6 °F - 24.8 °F 93% 30.30 in - SSE 2.2 mph - N/A   Clear